Simultaneous Nadir Overpasses (SNOs) Predictions

Prediction of SNOs between LANDSAT-8 and METOP-B Satellite Orbit:

Table of predicted SNOs for the next 14.0 days since TLE Epoch: 7/23/2016
Index Date (LANDSAT-8) Time (LANDSAT-8) Lat,Lon (LANDSAT-8) SZA (LANDSAT-8 ) Date (METOP-B) Time (METOP-B) Lat,Lon (METOP-B) SZA (METOP-B ) Distance(km) Time Diff (sec)
1 07/25/2016 04:07:29 81.08, 157.49 63.45 07/25/2016 04:07:21 81.08, 157.44 63.45 0.76 8
2 07/25/2016 04:56:54 -81.12, -34.22 116.45 07/25/2016 04:57:59 -81.12, -34.13 116.41 1.54 65
3 07/27/2016 22:52:19 -81.07, 56.13 115.95 07/27/2016 22:51:06 -81.07, 56.26 115.97 2.16 73
4 07/27/2016 23:41:44 81.10,-135.79 64.13 07/27/2016 23:41:45 81.09,-135.81 64.12 0.64 1
5 07/28/2016 00:31:02 -81.29, 35.13 115.39 07/28/2016 00:32:16 -81.20, 35.32 115.40 10.35 74
6 07/30/2016 18:26:35 -81.06, 122.48 115.29 07/30/2016 18:25:31 -81.07, 122.65 115.30 2.98 64
7 07/30/2016 19:16:00 81.09, -69.47 64.78 07/30/2016 19:16:10 81.09, -69.47 64.79 0.11 10
8 08/02/2016 14:00:49 -81.08,-170.84 114.54 08/02/2016 13:59:55 -81.07,-170.98 114.59 2.60 54
9 08/02/2016 14:50:14 81.10, -2.82 65.53 08/02/2016 14:50:33 81.10, -2.77 65.54 0.91 19
10 08/05/2016 09:35:05 -81.07,-104.57 113.81 08/05/2016 09:34:20 -81.07,-104.63 113.84 1.19 45




NCC Satellite Simultaneous Nadir Overpasses (SNOs) Prediction Service
